Agua de Enmedio, Mexico

3:53 AM MST on February 23, 2017 (GMT -0700)
Gen Manuel Marquez De Leon

Weather History for MMLP - June, 2014

Change the Weather History Date:

Sunday, June 8, 2014

  Actual Average Record
Temperature  
Mean Temperature 84 °F -  
Max Temperature 99 °F 95 °F 100 °F (1999)
Min Temperature 68 °F 67 °F 57 °F (2007)
Cooling Degree Days 18    
Growing Degree Days 34 (Base 50)    
Moisture  
Dew Point 49 °F    
Average Humidity 36    
Maximum Humidity 83    
Minimum Humidity 9    
Precipitation  
Precipitation 0.00 in - - ()
Sea Level Pressure  
Sea Level Pressure 29.77 in    
Wind  
Wind Speed 9 mph ()    
Max Wind Speed 14 mph    
Max Gust Speed -    
Visibility 10.2 miles    
Events      
Averages and records for this station are not official NWS values.
T = Trace of Precipitation, MM = Missing Value Source: Averaged Metar Reports

Daily Weather History Graph

Daily Weather History Graph

Search for Another Location

Airport or City:

Trip Planner

Search our weather history database for the weather conditions in past years. The results will help you decide how hot, cold, wet, or windy it might be!

Date:

Astronomy

Jun. 08, 2014 Rise Set
Actual Time 6:33 AM MDT 8:08 PM MDT
Civil Twilight 6:07 AM MDT 8:33 PM MDT
Nautical Twilight 5:37 AM MDT 9:04 PM MDT
Astronomical Twilight 5:05 AM MDT 9:35 PM MDT
Moon 3:55 PM MDT (6/8) 2:59 AM MDT (6/8)
Length of Visible Light 14h 25m
Length of Day
13h 35m
Waxing Gibbous, 77% of the Moon is Illuminated
Jun 8
Waxing Gibbous
Jun 12
Full
Jun 19
Last Quarter
Jun 27
New
Jul 5
First Quarter

Hourly Weather History & Observations

Time (MDT) Temp. Dew Point Humidity Pressure Visibility Wind Dir Wind Speed Gust Speed Precip Events Conditions
5:40 AM 68.0 °F 62.6 °F 83% 29.80 in 7.0 mi South 12.7 mph - N/A   Clear
5:50 AM 69 °F 65 °F 83% 29.79 in 2 mi South 6.7 mph - -  
8:40 AM 71.6 °F 60.8 °F 69% 29.83 in 7.0 mi South 8.1 mph - N/A   Clear
8:50 AM 73 °F 63 °F 63% 29.83 in 12 mi South 8.9 mph - -  
9:40 AM 75.2 °F 59.0 °F 57% 29.83 in 7.0 mi SSW 6.9 mph - N/A   Clear
10:40 AM 82.4 °F 50.0 °F 32% 29.82 in 10.0 mi South 10.4 mph - N/A   Clear
11:40 AM 86.0 °F 42.8 °F 22% 29.81 in 10.0 mi South 10.4 mph - N/A   Clear
11:50 AM 92 °F 50 °F 15% 29.80 in 19 mi SSW 6.7 mph - -  
12:40 PM 91.4 °F 37.4 °F 15% 29.79 in 10.0 mi SW 10.4 mph - N/A   Clear
1:40 PM 93.2 °F 39.2 °F 15% 29.76 in 10.0 mi SW 9.2 mph - N/A   Clear
2:50 PM 98 °F 48 °F 11% 29.74 in 19 mi SSW 6.7 mph - -  
3:01 PM 93.2 °F 35.6 °F 13% 29.73 in 10.0 mi SW 9.2 mph - N/A   Clear
3:52 PM 93.2 °F 32.0 °F 11% 29.72 in 10.0 mi WSW 11.5 mph - N/A   Clear
4:50 PM 93.2 °F 33.8 °F 12% 29.71 in 10.0 mi SW 11.5 mph - N/A   Clear
5:45 PM 97 °F 44 °F 9% 29.69 in 19 mi SSW 8.9 mph - -  
5:47 PM 91.4 °F 33.8 °F 13% 29.70 in 10.0 mi SSW 13.8 mph - N/A   Clear
6:40 PM 87.8 °F 41.0 °F 19% 29.71 in 10.0 mi SSW 13.8 mph - N/A   Clear
7:54 PM 82.4 °F 50.0 °F 32% 29.74 in 10.0 mi SW 13.8 mph - N/A   Clear
8:45 PM 82 °F 57 °F 33% 29.72 in 2 mi SSW 8.9 mph - -  
8:50 PM 77.0 °F 57.2 °F 50% 29.76 in 10.0 mi SSW 11.5 mph - N/A   Clear
9:42 PM 75.2 °F 60.8 °F 61% 29.78 in 10.0 mi SSW 11.5 mph - N/A   Clear
10:41 PM 71.6 °F 60.8 °F 69% 29.80 in 10.0 mi South 11.5 mph - N/A   Clear